Broome, Australia

1:29 PM AWST on March 28, 2017 (GMT +0800)
Broome International

Weather History for YBRM - October, 2012

Change the Weather History Date:

Tuesday, October 2, 2012

  Actual Average Record
Temperature  
Mean Temperature 80 °F -  
Max Temperature 89 °F 91 °F - ()
Min Temperature 72 °F 72 °F - ()
Cooling Degree Days 16    
Growing Degree Days 30 (Base 50)    
Moisture  
Dew Point 70 °F    
Average Humidity 70    
Maximum Humidity 89    
Minimum Humidity 45    
Precipitation  
Precipitation 0.00 in 0.00 in - ()
Sea Level Pressure  
Sea Level Pressure 30.00 in    
Wind  
Wind Speed 7 mph ()    
Max Wind Speed 16 mph    
Max Gust Speed -    
Visibility 7.5 miles    
Events Rain    
T = Trace of Precipitation, MM = Missing Value Source: Averaged Metar Reports

Daily Weather History Graph

Daily Weather History Graph

Search for Another Location

Airport or City:

Trip Planner

Search our weather history database for the weather conditions in past years. The results will help you decide how hot, cold, wet, or windy it might be!

Date:

Astronomy

Oct. 02, 2012 Rise Set
Actual Time 5:32 AM AWST 5:48 PM AWST
Civil Twilight 5:10 AM AWST 6:10 PM AWST
Nautical Twilight 4:45 AM AWST 6:36 PM AWST
Astronomical Twilight 4:19 AM AWST 7:01 PM AWST
Moon 7:37 PM AWST (10/2) 6:35 AM AWST (10/2)
Length of Visible Light 13h 00m
Length of Day
12h 16m
Waning Gibbous, 96% of the Moon is Illuminated
Oct 2
Waning Gibbous
Oct 8
Last Quarter
Oct 15
New
Oct 22
First Quarter
Oct 30
Full

Hourly Weather History & Observations

Time (AWST) Temp. Heat Index Dew Point Humidity Pressure Visibility Wind Dir Wind Speed Gust Speed Precip Events Conditions
12:00 AM 79 °F - 71 °F 69% 30.03 in - ESE 8.1 mph - -  
12:00 AM 78.8 °F - 69.8 °F 74% 30.04 in 6.2 mi ESE 8.1 mph - N/A   Unknown
12:30 AM 78.8 °F - 69.8 °F 74% 30.01 in 6.2 mi ESE 8.1 mph - N/A   Mostly Cloudy
1:00 AM 77.0 °F - 69.8 °F 78% 30.01 in 6.2 mi East 8.1 mph - N/A   Mostly Cloudy
1:30 AM 77.0 °F - 68.0 °F 74% 30.01 in 6.2 mi East 8.1 mph - N/A   Scattered Clouds
2:00 AM 76 °F - 67 °F 66% 30.01 in - East 8.1 mph - -  
2:00 AM 75.2 °F - 66.2 °F 73% 30.01 in 6.2 mi East 8.1 mph - N/A   Unknown
2:30 AM 75.2 °F - 66.2 °F 73% 30.01 in 6.2 mi East 8.1 mph - N/A   Mostly Cloudy
3:00 AM 74 °F - 67 °F 71% 30.01 in - East 5.8 mph - -  
3:00 AM 75.2 °F - 66.2 °F 73% 30.01 in 6.2 mi East 5.8 mph - N/A   Mostly Cloudy
3:30 AM 73.4 °F - 66.2 °F 78% 30.01 in 6.2 mi East 5.8 mph - N/A   Unknown
4:00 AM 73.4 °F - 66.2 °F 78% 30.01 in 6.2 mi East 6.9 mph - N/A   Scattered Clouds
4:30 AM 73.4 °F - 66.2 °F 78% 30.01 in 6.2 mi East 6.9 mph - N/A   Scattered Clouds
5:00 AM 73 °F - 67 °F 75% 30.03 in - East 5.8 mph - -  
5:00 AM 73.4 °F - 66.2 °F 78% 30.01 in 6.2 mi East 5.8 mph - N/A   Unknown
5:30 AM 73.4 °F - 68.0 °F 83% 30.04 in - ENE 5.8 mph - N/A   Clear
6:00 AM 74 °F - 67 °F 73% 30.04 in 16 mi ENE 5.8 mph - -   Haze
6:00 AM 73.4 °F - 66.2 °F 78% 30.04 in - ENE 5.8 mph - N/A   Clear
6:30 AM 75.2 °F - 68.0 °F 78% 30.04 in - ENE 4.6 mph - N/A   Clear
7:00 AM 77.0 °F - 68.0 °F 74% 30.06 in - ENE 4.6 mph - N/A   Clear
7:30 AM 77.0 °F - 66.2 °F 69% 30.06 in - NE 6.9 mph - N/A   Clear
8:00 AM 79 °F - 67 °F 57% 30.07 in - East 8.1 mph - -  
8:00 AM 78.8 °F - 66.2 °F 65% 30.06 in - East 8.1 mph - N/A   Clear
8:30 AM 78.8 °F - 66.2 °F 65% 30.06 in - East 8.1 mph - N/A   Clear
9:00 AM 81 °F - 67 °F 54% 30.06 in 16 mi NE 5.8 mph - -   Haze
9:00 AM 80.6 °F 83.2 °F 68.0 °F 65% 30.06 in - NE 5.8 mph - N/A   Clear
9:30 AM 84.2 °F 87.3 °F 68.0 °F 58% 30.04 in - West 5.8 mph - N/A   Clear
10:00 AM 84.2 °F 87.3 °F 68.0 °F 58% 30.04 in - WSW 6.9 mph - N/A   Clear
10:30 AM 84.2 °F 87.3 °F 68.0 °F 58% 30.04 in 6.2 mi South 10.4 mph - N/A   Unknown
11:00 AM 82 °F - 69 °F 55% 30.03 in - South 11.5 mph - -  
11:00 AM 82.4 °F 85.4 °F 68.0 °F 62% 30.04 in - South 11.5 mph - N/A   Clear
11:30 AM 82.4 °F 84.6 °F 66.2 °F 58% 30.01 in - SSE 10.4 mph - N/A   Clear
12:00 PM 86 °F - 68 °F 45% 30.01 in 19 mi SSW 8.1 mph - -   Haze
12:00 PM 86.0 °F 89.4 °F 68.0 °F 55% 30.01 in - SSW 8.1 mph - N/A   Clear
12:30 PM 87.8 °F 91.4 °F 68.0 °F 52% 29.98 in - WSW 12.7 mph - N/A   Clear
1:00 PM 87.8 °F 92.6 °F 69.8 °F 55% 29.98 in - West 12.7 mph - N/A   Clear
2:00 PM 83 °F - 71 °F 58% 29.96 in - WNW 16.1 mph - -  
2:00 PM 82.4 °F 86.3 °F 69.8 °F 66% 29.95 in - WNW 16.1 mph - N/A   Clear
2:30 PM 84.2 °F 89.6 °F 71.6 °F 66% 29.95 in 6.2 mi NW 10.4 mph - N/A   Scattered Clouds
3:00 PM 84 °F - 72 °F 59% 29.96 in 16 mi NNW 11.5 mph - -   Scattered Clouds
3:00 PM 84.2 °F 89.6 °F 71.6 °F 66% 29.95 in 6.2 mi NNW 11.5 mph - N/A   Partly Cloudy
3:30 PM 84.2 °F 89.6 °F 71.6 °F 66% 29.95 in 6.2 mi WNW 10.4 mph - N/A   Scattered Clouds
4:00 PM 84.2 °F 87.3 °F 68.0 °F 58% 29.95 in 6.2 mi NW 12.7 mph - N/A   Scattered Clouds
4:30 PM 82.4 °F 86.3 °F 69.8 °F 66% 29.95 in 6.2 mi NW 10.4 mph - N/A   Scattered Clouds
5:00 PM 82 °F - 70 °F 59% 29.96 in - WNW 9.2 mph - -  
5:00 PM 82.4 °F 86.3 °F 69.8 °F 66% 29.95 in 6.2 mi WNW 9.2 mph - N/A   Scattered Clouds
5:30 PM 80.6 °F 84.6 °F 71.6 °F 74% 29.95 in 6.2 mi WNW 10.4 mph - N/A   Scattered Clouds
6:00 PM 80.6 °F 84.6 °F 71.6 °F 74% 29.98 in 6.2 mi West 6.9 mph - N/A   Scattered Clouds
6:30 PM 80.6 °F 84.6 °F 71.6 °F 74% 29.98 in 6.2 mi SW 5.8 mph - N/A   Scattered Clouds
7:00 PM 80.6 °F 85.4 °F 73.4 °F 79% 29.98 in 6.2 mi SSW 6.9 mph - N/A   Scattered Clouds
7:30 PM 80.6 °F 85.4 °F 73.4 °F 79% 29.98 in 6.2 mi SW 2.3 mph - N/A   Mostly Cloudy
8:00 PM 80 °F - 74 °F 76% 30.00 in - SW 4.6 mph - -  
8:00 PM 80.6 °F 85.4 °F 73.4 °F 79% 29.98 in - SW 4.6 mph - N/A   Clear
8:30 PM 80.6 °F 85.4 °F 73.4 °F 79% 30.01 in - South 4.6 mph - N/A   Clear
9:00 PM 80 °F - 74 °F 76% 30.00 in 22 mi Calm Calm - - Rain Light Rain
9:00 PM 80.6 °F 85.4 °F 73.4 °F 79% 29.98 in 6.2 mi Calm Calm - N/A Rain Light Rain
9:30 PM 80.6 °F 85.4 °F 73.4 °F 79% 29.98 in 6.2 mi South 2.3 mph - N/A   Unknown
10:00 PM 78.8 °F - 75.2 °F 89% 29.98 in 6.2 mi SSW 5.8 mph - N/A   Unknown
10:30 PM 78.8 °F - 73.4 °F 83% 29.98 in 6.2 mi SW 6.9 mph - N/A   Unknown
11:00 PM 79 °F - 74 °F 79% 29.97 in - WSW 6.9 mph - -  
11:00 PM 78.8 °F - 73.4 °F 83% 29.95 in 6.2 mi WSW 6.9 mph - N/A   Unknown
11:30 PM 78.8 °F - 73.4 °F 83% 29.95 in 6.2 mi SW 5.8 mph - N/A   Unknown